Weather History for Mountain Home, AR

Change the Weather History Date:

Thursday, February 21, 2013

  Actual Average (KHRO) Record (KHRO)
Temperature  
Mean Temperature 28 °F 42 °F  
Max Temperature 30 °F 52 °F 76 °F (1897)
Min Temperature 26 °F 32 °F 9 °F (1963)
Degree Days  
Heating Degree Days 37 23  
Month to date heating degree days 532  
Since 1 July heating degree days 3018  
Cooling Degree Days 0 0  
Month to date cooling degree days 0  
Year to date cooling degree days 0  
Moisture  
Dew Point 26 °F    
Average Humidity 91    
Maximum Humidity 100    
Minimum Humidity 66    
Precipitation  
Precipitation 0.68 in 0.10 in 1.30 in (1951)
Month to date precipitation 1.92  
Year to date precipitation 4.48  
Snow  
Snow 0.00 in 0.10 in 6.00 in (1912)
Month to date snowfall 2.5  
Since 1 July snowfall 8.5  
Snow Depth -    
Sea Level Pressure  
Sea Level Pressure 29.91 in    
Wind  
Wind Speed 11 mph (ESE)    
Max Wind Speed 18 mph    
Max Gust Speed 29 mph    
Visibility 5 miles    
Events Rain , Thunderstorm    
T = Trace of Precipitation, MM = Missing Value Source: NWS Daily Summary

Daily Weather History Graph

Daily Weather History Graph

Search for Another Location

Airport:

Trip Planner

Search our weather history database for the weather conditions in past years. The results will help you decide how hot, cold, wet, or windy it might be!

Date:

Astronomy

Feb. 21, 2013 Rise Set
Actual Time 6:50 AM CST 5:57 PM CST
Civil Twilight 6:24 AM CST 6:23 PM CST
Nautical Twilight 5:54 AM CST 6:53 PM CST
Astronomical Twilight 5:24 AM CST 7:23 PM CST
Moon 2:16 PM CST (2/21) 3:50 AM CST (2/21)
Length of Visible Light 11h 59m
Length of Day
11h 06m
Waxing Gibbous, 84% of the Moon is Illuminated
Feb 21
Waxing Gibbous
Feb 25
Full
Mar 4
Last Quarter
Mar 11
New
Mar 19
First Quarter

Hourly Weather History & Observations

Time (CST) Temp. Windchill Dew Point Humidity Pressure Visibility Wind Dir Wind Speed Gust Speed Precip Events Conditions
12:53 AM 28.0 °F 18.1 °F 18.0 °F 66% 30.17 in 10.0 mi ESE 11.5 mph - 0.01 in   Overcast
2:30 AM 26.6 °F 16.2 °F 21.2 °F 80% 30.11 in 8.0 mi East 11.5 mph 18.4 mph 0.00 in Rain Light Freezing Rain
2:53 AM 27.0 °F 15.6 °F 21.0 °F 78% 30.13 in 10.0 mi East 13.8 mph 20.7 mph 0.00 in   Overcast
3:25 AM 26.6 °F 17.5 °F 21.2 °F 80% 30.09 in 7.0 mi East 9.2 mph 18.4 mph 0.01 in Rain Light Freezing Rain
3:41 AM 26.6 °F 16.8 °F 21.2 °F 80% 30.08 in 6.0 mi East 10.4 mph 18.4 mph 0.01 in Rain Light Freezing Rain
3:53 AM 27.0 °F 16.1 °F 23.0 °F 85% 30.09 in 6.0 mi East 12.7 mph - 0.02 in Rain Light Freezing Rain
4:35 AM 26.6 °F 16.8 °F 21.2 °F 80% 30.05 in 9.0 mi East 10.4 mph - 0.01 in   Overcast
4:53 AM 27.0 °F 15.6 °F 21.9 °F 81% 30.05 in 9.0 mi East 13.8 mph 23.0 mph 0.01 in   Overcast
5:53 AM 27.0 °F 16.1 °F 21.9 °F 81% 30.05 in 9.0 mi ESE 12.7 mph 23.0 mph 0.00 in   Overcast
6:13 AM 26.6 °F 14.7 °F 23.0 °F 86% 30.00 in 5.0 mi East 15.0 mph 20.7 mph 0.02 in Rain Light Freezing Rain
6:23 AM 26.6 °F 15.2 °F 24.8 °F 93% 29.96 in 7.0 mi East 13.8 mph 24.2 mph 0.02 in Rain Light Freezing Rain
6:48 AM 26.6 °F 14.7 °F 23.0 °F 86% 29.98 in 9.0 mi East 15.0 mph 28.8 mph 0.02 in   Overcast
6:53 AM 27.0 °F 17.3 °F 23.0 °F 85% 30.04 in 9.0 mi ESE 10.4 mph 20.7 mph 0.02 in Rain Light Freezing Rain
7:03 AM 26.6 °F 17.5 °F 24.8 °F 93% 29.98 in 7.0 mi East 9.2 mph - 0.01 in Rain , Thunderstorm Light Freezing Rain
7:14 AM 26.6 °F 15.7 °F 23.0 °F 86% 30.01 in 7.0 mi ESE 12.7 mph - 0.01 in Rain , Thunderstorm Light Freezing Rain
7:29 AM 26.6 °F 14.3 °F 24.8 °F 93% 29.96 in 4.0 mi East 16.1 mph 21.9 mph 0.06 in Rain , Thunderstorm Light Freezing Rain
7:37 AM 26.6 °F 14.3 °F 23.0 °F 86% 29.97 in 4.0 mi East 16.1 mph 24.2 mph 0.06 in Rain Light Freezing Rain
7:53 AM 27.0 °F 15.6 °F 24.1 °F 89% 29.98 in 6.0 mi East 13.8 mph 24.2 mph 0.06 in   Overcast
8:50 AM 26.6 °F 15.2 °F 24.8 °F 93% 29.91 in 6.0 mi East 13.8 mph - 0.00 in Rain Light Freezing Rain
8:53 AM 27.0 °F 14.7 °F 24.1 °F 89% 29.94 in 6.0 mi East 16.1 mph - 0.00 in Rain Light Freezing Rain
9:34 AM 26.6 °F 14.3 °F 24.8 °F 93% 29.88 in 7.0 mi East 16.1 mph 25.3 mph 0.00 in   Overcast
9:48 AM 26.6 °F 14.3 °F 24.8 °F 93% 29.88 in 7.0 mi ESE 16.1 mph 25.3 mph 0.00 in   Overcast
9:53 AM 27.0 °F 14.3 °F 23.0 °F 85% 29.92 in 7.0 mi ESE 17.3 mph 25.3 mph 0.00 in   Overcast
10:08 AM 28.4 °F 17.0 °F 26.6 °F 93% 29.87 in 2.5 mi East 15.0 mph 21.9 mph 0.03 in Rain Light Freezing Rain
10:21 AM 28.4 °F 18.5 °F 24.8 °F 86% 29.87 in 4.0 mi ESE 11.5 mph 21.9 mph 0.05 in Rain Light Freezing Rain
10:30 AM 28.4 °F 16.6 °F 26.6 °F 93% 29.88 in 2.5 mi ESE 16.1 mph 25.3 mph 0.06 in Rain Light Freezing Rain
10:40 AM 28.4 °F 15.8 °F 26.6 °F 93% 29.83 in 2.0 mi East 18.4 mph 25.3 mph 0.08 in Rain , Thunderstorm Light Freezing Rain
11:08 AM 28.4 °F 17.5 °F 26.6 °F 93% 29.83 in 2.5 mi East 13.8 mph 20.7 mph 0.02 in Rain , Thunderstorm Light Freezing Rain
11:29 AM 30.2 °F 23.4 °F 28.4 °F 93% 29.88 in 1.2 mi Variable 6.9 mph 16.1 mph 0.05 in Rain , Thunderstorm Light Freezing Rain
11:41 AM 30.2 °F - 28.4 °F 93% 29.92 in 1.5 mi Calm Calm - 0.08 in Rain , Thunderstorm Light Freezing Rain
11:53 AM 30.0 °F 25.2 °F 28.0 °F 92% 29.93 in 1.2 mi Variable 4.6 mph - 0.11 in Rain , Thunderstorm Light Freezing Rain
12:04 PM 30.2 °F 26.7 °F 28.4 °F 93% 29.92 in 1.2 mi Variable 3.5 mph - 0.04 in Rain , Thunderstorm Light Freezing Rain
12:08 PM 30.2 °F 26.7 °F 28.4 °F 93% 29.94 in 1.2 mi SSW 3.5 mph - 0.05 in Rain Light Freezing Rain
12:19 PM 30.2 °F 23.4 °F 28.4 °F 93% 29.89 in 1.2 mi East 6.9 mph - 0.10 in Rain Light Freezing Rain
12:29 PM 30.2 °F 26.7 °F 28.4 °F 93% 29.89 in 1.5 mi East 3.5 mph - 0.14 in Rain Light Freezing Rain
12:34 PM 30.2 °F 23.4 °F 28.4 °F 93% 29.88 in 2.0 mi East 6.9 mph - 0.16 in Rain Light Freezing Rain
12:45 PM 30.2 °F 24.3 °F 28.4 °F 93% 29.88 in 4.0 mi East 5.8 mph - 0.21 in Rain Light Freezing Rain
12:53 PM 30.0 °F 21.7 °F 28.9 °F 96% 29.87 in 5.0 mi East 9.2 mph - 0.24 in Rain Light Freezing Rain
12:58 PM 30.2 °F 22.6 °F 28.4 °F 93% 29.84 in 4.0 mi ENE 8.1 mph - 0.02 in Rain Light Freezing Rain
1:09 PM 30.2 °F 23.4 °F 28.4 °F 93% 29.83 in 4.0 mi East 6.9 mph - 0.05 in Rain Light Freezing Rain
1:49 PM 30.2 °F 21.9 °F 28.4 °F 93% 29.81 in 2.5 mi East 9.2 mph - 0.16 in Rain Light Freezing Rain
1:53 PM 30.9 °F 22.2 °F 28.9 °F 92% 29.80 in 4.0 mi East 10.4 mph - 0.17 in Rain Light Freezing Rain
2:53 PM 30.9 °F 22.8 °F 28.9 °F 92% 29.80 in 2.5 mi East 9.2 mph - 0.04 in Rain Light Freezing Rain
3:25 PM 30.2 °F 20.2 °F 28.4 °F 93% 29.77 in 1.8 mi ESE 12.7 mph 19.6 mph 0.00 in Rain Light Freezing Rain
3:53 PM 30.9 °F 21.7 °F 30.0 °F 96% 29.78 in 2.0 mi ESE 11.5 mph - 0.00 in Rain Light Freezing Rain
4:23 PM 30.2 °F 22.6 °F 30.2 °F 100% 29.77 in 3.0 mi ESE 8.1 mph - 0.00 in Rain Light Freezing Rain
4:38 PM 30.2 °F 21.3 °F 30.2 °F 100% 29.78 in 5.0 mi ESE 10.4 mph 16.1 mph 0.00 in   Overcast
4:53 PM 30.9 °F 22.2 °F 28.9 °F 92% 29.80 in 7.0 mi SE 10.4 mph - 0.00 in   Overcast
5:53 PM 30.9 °F 21.7 °F 30.0 °F 96% 29.79 in 3.0 mi ESE 11.5 mph - N/A   Overcast
6:53 PM 30.9 °F 27.5 °F 30.0 °F 96% 29.84 in 3.0 mi South 3.5 mph - N/A   Overcast
7:19 PM 30.2 °F 25.4 °F 30.2 °F 100% 29.83 in 3.0 mi SSE 4.6 mph - 0.00 in   Overcast
7:44 PM 30.2 °F - 30.2 °F 100% 29.82 in 4.0 mi Calm Calm - 0.00 in   Overcast
7:53 PM 30.9 °F 27.5 °F 30.9 °F 100% 29.85 in 4.0 mi SE 3.5 mph - 0.00 in   Overcast
8:24 PM 30.2 °F 25.4 °F 30.2 °F 100% 29.82 in 6.0 mi SSE 4.6 mph - N/A   Overcast
9:53 PM 30.9 °F 26.2 °F 30.0 °F 96% 29.85 in 6.0 mi SSE 4.6 mph - N/A   Overcast
10:53 PM 30.9 °F 27.5 °F 30.0 °F 96% 29.86 in 4.0 mi South 3.5 mph - N/A   Overcast
11:24 PM 30.2 °F 26.7 °F 30.2 °F 100% 29.82 in 2.5 mi Variable 3.5 mph - N/A   Overcast
11:53 PM 30.9 °F 27.5 °F 30.0 °F 96% 29.85 in 1.5 mi SSW 3.5 mph - N/A   Overcast